<?xml version="1.0" encoding="utf-8"?>
<gpx xmlns:xsi="http://www.w3.org/2001/XMLSchema-instance" xmlns:xsd="http://www.w3.org/2001/XMLSchema" version="1.1" creator="Shapelink.com" xmlns="http://www.topografix.com/GPX/1/1" xmlns:gpxtpx="http://www.garmin.com/xmlschemas/TrackPointExtension/v1">
  <metadata>
    <name>Ejecutar 6.46 km, 2012-04-11</name>
    <desc></desc>
    <author><name>Andreas Östlund</name></author> 
    <time>1970-01-01T01:00:00Z</time>
  </metadata>
  <trk>
    <name>Ejecutar 6.46 km, 2012-04-11</name>
    <trkseg>
      <trkpt lat="58.408112" lon="15.634635">
        <ele>44.25</ele>
        <time>1970-01-01T01:00:00Z</time>
      </trkpt>
      <trkpt lat="58.408011" lon="15.634688">
        <ele>44.1111</ele>
        <time>1970-01-01T01:00:00Z</time>
      </trkpt>
      <trkpt lat="58.407924" lon="15.634626">
        <ele>44</ele>
        <time>1970-01-01T01:00:00Z</time>
      </trkpt>
      <trkpt lat="58.407816" lon="15.634728">
        <ele>43.9091</ele>
        <time>1970-01-01T01:00:00Z</time>
      </trkpt>
      <trkpt lat="58.407721" lon="15.634848">
        <ele>43.8182</ele>
        <time>1970-01-01T01:00:00Z</time>
      </trkpt>
      <trkpt lat="58.407636" lon="15.634923">
        <ele>43.5455</ele>
        <time>1970-01-01T01:00:00Z</time>
      </trkpt>
      <trkpt lat="58.407519" lon="15.634986">
        <ele>43.2727</ele>
        <time>1970-01-01T01:00:00Z</time>
      </trkpt>
      <trkpt lat="58.407418" lon="15.635022">
        <ele>43.2727</ele>
        <time>1970-01-01T01:00:00Z</time>
      </trkpt>
      <trkpt lat="58.407327" lon="15.635045">
        <ele>43</ele>
        <time>1970-01-01T01:00:00Z</time>
      </trkpt>
      <trkpt lat="58.407216" lon="15.635067">
        <ele>43</ele>
        <time>1970-01-01T01:00:00Z</time>
      </trkpt>
      <trkpt lat="58.407101" lon="15.635056">
        <ele>43</ele>
        <time>1970-01-01T01:00:00Z</time>
      </trkpt>
      <trkpt lat="58.406982" lon="15.635005">
        <ele>43</ele>
        <time>1970-01-01T01:00:00Z</time>
      </trkpt>
      <trkpt lat="58.406889" lon="15.634967">
        <ele>43</ele>
        <time>1970-01-01T01:00:00Z</time>
      </trkpt>
      <trkpt lat="58.406776" lon="15.634958">
        <ele>43.1818</ele>
        <time>1970-01-01T01:00:00Z</time>
      </trkpt>
      <trkpt lat="58.406669" lon="15.634954">
        <ele>43.3636</ele>
        <time>1970-01-01T01:00:00Z</time>
      </trkpt>
      <trkpt lat="58.40656" lon="15.634971">
        <ele>43.5455</ele>
        <time>1970-01-01T01:00:00Z</time>
      </trkpt>
      <trkpt lat="58.406452" lon="15.634981">
        <ele>43.7273</ele>
        <time>1970-01-01T01:00:00Z</time>
      </trkpt>
      <trkpt lat="58.406349" lon="15.634962">
        <ele>43.9091</ele>
        <time>1970-01-01T01:00:00Z</time>
      </trkpt>
      <trkpt lat="58.406234" lon="15.634948">
        <ele>44.0909</ele>
        <time>1970-01-01T01:00:00Z</time>
      </trkpt>
      <trkpt lat="58.406137" lon="15.634966">
        <ele>44.2727</ele>
        <time>1970-01-01T01:00:00Z</time>
      </trkpt>
      <trkpt lat="58.406039" lon="15.635003">
        <ele>44.4545</ele>
        <time>1970-01-01T01:00:00Z</time>
      </trkpt>
      <trkpt lat="58.405948" lon="15.635038">
        <ele>44.6364</ele>
        <time>1970-01-01T01:00:00Z</time>
      </trkpt>
      <trkpt lat="58.405847" lon="15.635068">
        <ele>44.8182</ele>
        <time>1970-01-01T01:00:00Z</time>
      </trkpt>
      <trkpt lat="58.405741" lon="15.635102">
        <ele>45</ele>
        <time>1970-01-01T01:00:00Z</time>
      </trkpt>
      <trkpt lat="58.405657" lon="15.635231">
        <ele>45</ele>
        <time>1970-01-01T01:00:00Z</time>
      </trkpt>
      <trkpt lat="58.405572" lon="15.635366">
        <ele>45</ele>
        <time>1970-01-01T01:00:00Z</time>
      </trkpt>
      <trkpt lat="58.405492" lon="15.635446">
        <ele>45</ele>
        <time>1970-01-01T01:00:00Z</time>
      </trkpt>
      <trkpt lat="58.405404" lon="15.635538">
        <ele>45</ele>
        <time>1970-01-01T01:00:00Z</time>
      </trkpt>
      <trkpt lat="58.405317" lon="15.635645">
        <ele>44.9091</ele>
        <time>1970-01-01T01:00:00Z</time>
      </trkpt>
      <trkpt lat="58.405242" lon="15.635752">
        <ele>44.8182</ele>
        <time>1970-01-01T01:00:00Z</time>
      </trkpt>
      <trkpt lat="58.405159" lon="15.635887">
        <ele>44.7273</ele>
        <time>1970-01-01T01:00:00Z</time>
      </trkpt>
      <trkpt lat="58.405101" lon="15.636046">
        <ele>44.6364</ele>
        <time>1970-01-01T01:00:00Z</time>
      </trkpt>
      <trkpt lat="58.40503" lon="15.636211">
        <ele>44.5455</ele>
        <time>1970-01-01T01:00:00Z</time>
      </trkpt>
      <trkpt lat="58.404948" lon="15.63634">
        <ele>44.4545</ele>
        <time>1970-01-01T01:00:00Z</time>
      </trkpt>
      <trkpt lat="58.404902" lon="15.636523">
        <ele>44.6364</ele>
        <time>1970-01-01T01:00:00Z</time>
      </trkpt>
      <trkpt lat="58.404847" lon="15.636679">
        <ele>44.8182</ele>
        <time>1970-01-01T01:00:00Z</time>
      </trkpt>
      <trkpt lat="58.404783" lon="15.636817">
        <ele>45</ele>
        <time>1970-01-01T01:00:00Z</time>
      </trkpt>
      <trkpt lat="58.404725" lon="15.636991">
        <ele>45.1818</ele>
        <time>1970-01-01T01:00:00Z</time>
      </trkpt>
      <trkpt lat="58.404664" lon="15.637162">
        <ele>45.1818</ele>
        <time>1970-01-01T01:00:00Z</time>
      </trkpt>
      <trkpt lat="58.404613" lon="15.637306">
        <ele>45.2727</ele>
        <time>1970-01-01T01:00:00Z</time>
      </trkpt>
      <trkpt lat="58.404566" lon="15.637466">
        <ele>45.3636</ele>
        <time>1970-01-01T01:00:00Z</time>
      </trkpt>
      <trkpt lat="58.404523" lon="15.637655">
        <ele>45.4545</ele>
        <time>1970-01-01T01:00:00Z</time>
      </trkpt>
      <trkpt lat="58.404465" lon="15.637823">
        <ele>45.5455</ele>
        <time>1970-01-01T01:00:00Z</time>
      </trkpt>
      <trkpt lat="58.404403" lon="15.637997">
        <ele>45.5455</ele>
        <time>1970-01-01T01:00:00Z</time>
      </trkpt>
      <trkpt lat="58.404361" lon="15.638155">
        <ele>45.5455</ele>
        <time>1970-01-01T01:00:00Z</time>
      </trkpt>
      <trkpt lat="58.404318" lon="15.638359">
        <ele>45.2727</ele>
        <time>1970-01-01T01:00:00Z</time>
      </trkpt>
      <trkpt lat="58.404257" lon="15.638564">
        <ele>45</ele>
        <time>1970-01-01T01:00:00Z</time>
      </trkpt>
      <trkpt lat="58.404228" lon="15.638743">
        <ele>44.7273</ele>
        <time>1970-01-01T01:00:00Z</time>
      </trkpt>
      <trkpt lat="58.404196" lon="15.638928">
        <ele>44.3636</ele>
        <time>1970-01-01T01:00:00Z</time>
      </trkpt>
      <trkpt lat="58.404145" lon="15.639113">
        <ele>44.1818</ele>
        <time>1970-01-01T01:00:00Z</time>
      </trkpt>
      <trkpt lat="58.40408" lon="15.639307">
        <ele>44</ele>
        <time>1970-01-01T01:00:00Z</time>
      </trkpt>
      <trkpt lat="58.404022" lon="15.639463">
        <ele>44.0909</ele>
        <time>1970-01-01T01:00:00Z</time>
      </trkpt>
      <trkpt lat="58.403962" lon="15.639625">
        <ele>44.1818</ele>
        <time>1970-01-01T01:00:00Z</time>
      </trkpt>
      <trkpt lat="58.403902" lon="15.639787">
        <ele>44.1818</ele>
        <time>1970-01-01T01:00:00Z</time>
      </trkpt>
      <trkpt lat="58.40384" lon="15.639956">
        <ele>44.2727</ele>
        <time>1970-01-01T01:00:00Z</time>
      </trkpt>
      <trkpt lat="58.403816" lon="15.640139">
        <ele>44.3636</ele>
        <time>1970-01-01T01:00:00Z</time>
      </trkpt>
      <trkpt lat="58.403748" lon="15.640306">
        <ele>44.4545</ele>
        <time>1970-01-01T01:00:00Z</time>
      </trkpt>
      <trkpt lat="58.403655" lon="15.64044">
        <ele>44.5455</ele>
        <time>1970-01-01T01:00:00Z</time>
      </trkpt>
      <trkpt lat="58.40355" lon="15.640547">
        <ele>44.6364</ele>
        <time>1970-01-01T01:00:00Z</time>
      </trkpt>
      <trkpt lat="58.403459" lon="15.640629">
        <ele>44.8182</ele>
        <time>1970-01-01T01:00:00Z</time>
      </trkpt>
      <trkpt lat="58.403363" lon="15.640743">
        <ele>45</ele>
        <time>1970-01-01T01:00:00Z</time>
      </trkpt>
      <trkpt lat="58.403277" lon="15.640809">
        <ele>45.4545</ele>
        <time>1970-01-01T01:00:00Z</time>
      </trkpt>
      <trkpt lat="58.403189" lon="15.640874">
        <ele>45.6364</ele>
        <time>1970-01-01T01:00:00Z</time>
      </trkpt>
      <trkpt lat="58.403098" lon="15.640975">
        <ele>45.6364</ele>
        <time>1970-01-01T01:00:00Z</time>
      </trkpt>
      <trkpt lat="58.403002" lon="15.641066">
        <ele>45.7273</ele>
        <time>1970-01-01T01:00:00Z</time>
      </trkpt>
      <trkpt lat="58.402922" lon="15.641152">
        <ele>45.8182</ele>
        <time>1970-01-01T01:00:00Z</time>
      </trkpt>
      <trkpt lat="58.402832" lon="15.641213">
        <ele>45.9091</ele>
        <time>1970-01-01T01:00:00Z</time>
      </trkpt>
      <trkpt lat="58.402735" lon="15.641315">
        <ele>46</ele>
        <time>1970-01-01T01:00:00Z</time>
      </trkpt>
      <trkpt lat="58.402656" lon="15.641468">
        <ele>46.0909</ele>
        <time>1970-01-01T01:00:00Z</time>
      </trkpt>
      <trkpt lat="58.40256" lon="15.641592">
        <ele>46</ele>
        <time>1970-01-01T01:00:00Z</time>
      </trkpt>
      <trkpt lat="58.402475" lon="15.641748">
        <ele>46.2727</ele>
        <time>1970-01-01T01:00:00Z</time>
      </trkpt>
      <trkpt lat="58.4024" lon="15.641885">
        <ele>46.5455</ele>
        <time>1970-01-01T01:00:00Z</time>
      </trkpt>
      <trkpt lat="58.402325" lon="15.642015">
        <ele>46.5455</ele>
        <time>1970-01-01T01:00:00Z</time>
      </trkpt>
      <trkpt lat="58.402247" lon="15.64214">
        <ele>46.5455</ele>
        <time>1970-01-01T01:00:00Z</time>
      </trkpt>
      <trkpt lat="58.40217" lon="15.642241">
        <ele>46.4545</ele>
        <time>1970-01-01T01:00:00Z</time>
      </trkpt>
      <trkpt lat="58.402095" lon="15.642345">
        <ele>46.3636</ele>
        <time>1970-01-01T01:00:00Z</time>
      </trkpt>
      <trkpt lat="58.402017" lon="15.642467">
        <ele>46.2727</ele>
        <time>1970-01-01T01:00:00Z</time>
      </trkpt>
      <trkpt lat="58.401957" lon="15.64266">
        <ele>46.1818</ele>
        <time>1970-01-01T01:00:00Z</time>
      </trkpt>
      <trkpt lat="58.401905" lon="15.642862">
        <ele>46.0909</ele>
        <time>1970-01-01T01:00:00Z</time>
      </trkpt>
      <trkpt lat="58.401867" lon="15.643028">
        <ele>45.7273</ele>
        <time>1970-01-01T01:00:00Z</time>
      </trkpt>
      <trkpt lat="58.401841" lon="15.64323">
        <ele>45.5455</ele>
        <time>1970-01-01T01:00:00Z</time>
      </trkpt>
      <trkpt lat="58.401789" lon="15.6434">
        <ele>45</ele>
        <time>1970-01-01T01:00:00Z</time>
      </trkpt>
      <trkpt lat="58.401743" lon="15.643583">
        <ele>44.4545</ele>
        <time>1970-01-01T01:00:00Z</time>
      </trkpt>
      <trkpt lat="58.40171" lon="15.643749">
        <ele>43.5455</ele>
        <time>1970-01-01T01:00:00Z</time>
      </trkpt>
      <trkpt lat="58.401679" lon="15.643924">
        <ele>42.6364</ele>
        <time>1970-01-01T01:00:00Z</time>
      </trkpt>
      <trkpt lat="58.401633" lon="15.644108">
        <ele>42</ele>
        <time>1970-01-01T01:00:00Z</time>
      </trkpt>
      <trkpt lat="58.401565" lon="15.644252">
        <ele>42.1818</ele>
        <time>1970-01-01T01:00:00Z</time>
      </trkpt>
      <trkpt lat="58.401517" lon="15.644451">
        <ele>42.3636</ele>
        <time>1970-01-01T01:00:00Z</time>
      </trkpt>
      <trkpt lat="58.401458" lon="15.644651">
        <ele>42.5455</ele>
        <time>1970-01-01T01:00:00Z</time>
      </trkpt>
      <trkpt lat="58.401383" lon="15.644853">
        <ele>42.5455</ele>
        <time>1970-01-01T01:00:00Z</time>
      </trkpt>
      <trkpt lat="58.401324" lon="15.645001">
        <ele>42.8182</ele>
        <time>1970-01-01T01:00:00Z</time>
      </trkpt>
      <trkpt lat="58.401257" lon="15.645119">
        <ele>43.0909</ele>
        <time>1970-01-01T01:00:00Z</time>
      </trkpt>
      <trkpt lat="58.401189" lon="15.645236">
        <ele>43.3636</ele>
        <time>1970-01-01T01:00:00Z</time>
      </trkpt>
      <trkpt lat="58.401112" lon="15.645379">
        <ele>43.6364</ele>
        <time>1970-01-01T01:00:00Z</time>
      </trkpt>
      <trkpt lat="58.401039" lon="15.64549">
        <ele>44.2727</ele>
        <time>1970-01-01T01:00:00Z</time>
      </trkpt>
      <trkpt lat="58.400951" lon="15.645613">
        <ele>44.7273</ele>
        <time>1970-01-01T01:00:00Z</time>
      </trkpt>
      <trkpt lat="58.400887" lon="15.64574">
        <ele>45.1818</ele>
        <time>1970-01-01T01:00:00Z</time>
      </trkpt>
      <trkpt lat="58.40082" lon="15.645919">
        <ele>44.8182</ele>
        <time>1970-01-01T01:00:00Z</time>
      </trkpt>
      <trkpt lat="58.400772" lon="15.646098">
        <ele>44.4545</ele>
        <time>1970-01-01T01:00:00Z</time>
      </trkpt>
      <trkpt lat="58.400707" lon="15.646251">
        <ele>44.1818</ele>
        <time>1970-01-01T01:00:00Z</time>
      </trkpt>
      <trkpt lat="58.400664" lon="15.646409">
        <ele>44.0909</ele>
        <time>1970-01-01T01:00:00Z</time>
      </trkpt>
      <trkpt lat="58.400611" lon="15.646605">
        <ele>44</ele>
        <time>1970-01-01T01:00:00Z</time>
      </trkpt>
      <trkpt lat="58.400576" lon="15.64677">
        <ele>43.9091</ele>
        <time>1970-01-01T01:00:00Z</time>
      </trkpt>
      <trkpt lat="58.40053" lon="15.646971">
        <ele>43.8182</ele>
        <time>1970-01-01T01:00:00Z</time>
      </trkpt>
      <trkpt lat="58.400501" lon="15.647157">
        <ele>43.7273</ele>
        <time>1970-01-01T01:00:00Z</time>
      </trkpt>
      <trkpt lat="58.400542" lon="15.647327">
        <ele>43.6364</ele>
        <time>1970-01-01T01:00:00Z</time>
      </trkpt>
      <trkpt lat="58.400591" lon="15.647477">
        <ele>43.7273</ele>
        <time>1970-01-01T01:00:00Z</time>
      </trkpt>
      <trkpt lat="58.400694" lon="15.647523">
        <ele>43.8182</ele>
        <time>1970-01-01T01:00:00Z</time>
      </trkpt>
      <trkpt lat="58.400802" lon="15.647413">
        <ele>43.9091</ele>
        <time>1970-01-01T01:00:00Z</time>
      </trkpt>
      <trkpt lat="58.400907" lon="15.64736">
        <ele>44</ele>
        <time>1970-01-01T01:00:00Z</time>
      </trkpt>
      <trkpt lat="58.401022" lon="15.647359">
        <ele>44</ele>
        <time>1970-01-01T01:00:00Z</time>
      </trkpt>
      <trkpt lat="58.401111" lon="15.647443">
        <ele>44</ele>
        <time>1970-01-01T01:00:00Z</time>
      </trkpt>
      <trkpt lat="58.401196" lon="15.647531">
        <ele>44</ele>
        <time>1970-01-01T01:00:00Z</time>
      </trkpt>
      <trkpt lat="58.401311" lon="15.647606">
        <ele>44</ele>
        <time>1970-01-01T01:00:00Z</time>
      </trkpt>
      <trkpt lat="58.401396" lon="15.64769">
        <ele>44</ele>
        <time>1970-01-01T01:00:00Z</time>
      </trkpt>
      <trkpt lat="58.401487" lon="15.647723">
        <ele>43.5455</ele>
        <time>1970-01-01T01:00:00Z</time>
      </trkpt>
      <trkpt lat="58.401592" lon="15.647627">
        <ele>43.0909</ele>
        <time>1970-01-01T01:00:00Z</time>
      </trkpt>
      <trkpt lat="58.401671" lon="15.647488">
        <ele>42.6364</ele>
        <time>1970-01-01T01:00:00Z</time>
      </trkpt>
      <trkpt lat="58.401733" lon="15.64733">
        <ele>42.1818</ele>
        <time>1970-01-01T01:00:00Z</time>
      </trkpt>
      <trkpt lat="58.401803" lon="15.647175">
        <ele>42.5455</ele>
        <time>1970-01-01T01:00:00Z</time>
      </trkpt>
      <trkpt lat="58.40185" lon="15.647029">
        <ele>42.6364</ele>
        <time>1970-01-01T01:00:00Z</time>
      </trkpt>
      <trkpt lat="58.401903" lon="15.646827">
        <ele>42.7273</ele>
        <time>1970-01-01T01:00:00Z</time>
      </trkpt>
      <trkpt lat="58.401963" lon="15.646676">
        <ele>42.8182</ele>
        <time>1970-01-01T01:00:00Z</time>
      </trkpt>
      <trkpt lat="58.402035" lon="15.646559">
        <ele>42.9091</ele>
        <time>1970-01-01T01:00:00Z</time>
      </trkpt>
      <trkpt lat="58.402119" lon="15.646447">
        <ele>43</ele>
        <time>1970-01-01T01:00:00Z</time>
      </trkpt>
      <trkpt lat="58.402146" lon="15.646227">
        <ele>42.8182</ele>
        <time>1970-01-01T01:00:00Z</time>
      </trkpt>
      <trkpt lat="58.402143" lon="15.64603">
        <ele>43.0909</ele>
        <time>1970-01-01T01:00:00Z</time>
      </trkpt>
      <trkpt lat="58.402143" lon="15.645849">
        <ele>43.3636</ele>
        <time>1970-01-01T01:00:00Z</time>
      </trkpt>
      <trkpt lat="58.402184" lon="15.645671">
        <ele>43.6364</ele>
        <time>1970-01-01T01:00:00Z</time>
      </trkpt>
      <trkpt lat="58.402223" lon="15.645509">
        <ele>43.9091</ele>
        <time>1970-01-01T01:00:00Z</time>
      </trkpt>
      <trkpt lat="58.402265" lon="15.645297">
        <ele>43.2727</ele>
        <time>1970-01-01T01:00:00Z</time>
      </trkpt>
      <trkpt lat="58.402318" lon="15.645132">
        <ele>42.9091</ele>
        <time>1970-01-01T01:00:00Z</time>
      </trkpt>
      <trkpt lat="58.402393" lon="15.644975">
        <ele>42.5455</ele>
        <time>1970-01-01T01:00:00Z</time>
      </trkpt>
      <trkpt lat="58.402457" lon="15.644829">
        <ele>42.1818</ele>
        <time>1970-01-01T01:00:00Z</time>
      </trkpt>
      <trkpt lat="58.402534" lon="15.644674">
        <ele>41.8182</ele>
        <time>1970-01-01T01:00:00Z</time>
      </trkpt>
      <trkpt lat="58.402589" lon="15.644503">
        <ele>41.4545</ele>
        <time>1970-01-01T01:00:00Z</time>
      </trkpt>
      <trkpt lat="58.402621" lon="15.644297">
        <ele>41.3636</ele>
        <time>1970-01-01T01:00:00Z</time>
      </trkpt>
      <trkpt lat="58.402632" lon="15.644097">
        <ele>41.2727</ele>
        <time>1970-01-01T01:00:00Z</time>
      </trkpt>
      <trkpt lat="58.402644" lon="15.643899">
        <ele>41.4545</ele>
        <time>1970-01-01T01:00:00Z</time>
      </trkpt>
      <trkpt lat="58.402644" lon="15.643677">
        <ele>41.6364</ele>
        <time>1970-01-01T01:00:00Z</time>
      </trkpt>
      <trkpt lat="58.40266" lon="15.643505">
        <ele>41.8182</ele>
        <time>1970-01-01T01:00:00Z</time>
      </trkpt>
      <trkpt lat="58.402682" lon="15.643297">
        <ele>42.0909</ele>
        <time>1970-01-01T01:00:00Z</time>
      </trkpt>
      <trkpt lat="58.4027" lon="15.643093">
        <ele>42.4545</ele>
        <time>1970-01-01T01:00:00Z</time>
      </trkpt>
      <trkpt lat="58.402706" lon="15.642881">
        <ele>42.7273</ele>
        <time>1970-01-01T01:00:00Z</time>
      </trkpt>
      <trkpt lat="58.402725" lon="15.642694">
        <ele>43</ele>
        <time>1970-01-01T01:00:00Z</time>
      </trkpt>
      <trkpt lat="58.402809" lon="15.642506">
        <ele>43.2727</ele>
        <time>1970-01-01T01:00:00Z</time>
      </trkpt>
      <trkpt lat="58.402882" lon="15.642384">
        <ele>43.5455</ele>
        <time>1970-01-01T01:00:00Z</time>
      </trkpt>
      <trkpt lat="58.402929" lon="15.642223">
        <ele>43.8182</ele>
        <time>1970-01-01T01:00:00Z</time>
      </trkpt>
      <trkpt lat="58.403001" lon="15.642097">
        <ele>44.0909</ele>
        <time>1970-01-01T01:00:00Z</time>
      </trkpt>
      <trkpt lat="58.40308" lon="15.641945">
        <ele>44.0909</ele>
        <time>1970-01-01T01:00:00Z</time>
      </trkpt>
      <trkpt lat="58.403168" lon="15.641796">
        <ele>44.1818</ele>
        <time>1970-01-01T01:00:00Z</time>
      </trkpt>
      <trkpt lat="58.403239" lon="15.641674">
        <ele>44.2727</ele>
        <time>1970-01-01T01:00:00Z</time>
      </trkpt>
      <trkpt lat="58.403328" lon="15.641617">
        <ele>44.3636</ele>
        <time>1970-01-01T01:00:00Z</time>
      </trkpt>
      <trkpt lat="58.403435" lon="15.641524">
        <ele>44.2727</ele>
        <time>1970-01-01T01:00:00Z</time>
      </trkpt>
      <trkpt lat="58.403533" lon="15.641404">
        <ele>44.2727</ele>
        <time>1970-01-01T01:00:00Z</time>
      </trkpt>
      <trkpt lat="58.403603" lon="15.641284">
        <ele>44.2727</ele>
        <time>1970-01-01T01:00:00Z</time>
      </trkpt>
      <trkpt lat="58.403678" lon="15.641152">
        <ele>44.2727</ele>
        <time>1970-01-01T01:00:00Z</time>
      </trkpt>
      <trkpt lat="58.403761" lon="15.641008">
        <ele>44.1818</ele>
        <time>1970-01-01T01:00:00Z</time>
      </trkpt>
      <trkpt lat="58.403843" lon="15.640885">
        <ele>44.0909</ele>
        <time>1970-01-01T01:00:00Z</time>
      </trkpt>
      <trkpt lat="58.403927" lon="15.640781">
        <ele>44</ele>
        <time>1970-01-01T01:00:00Z</time>
      </trkpt>
      <trkpt lat="58.404018" lon="15.640682">
        <ele>43.9091</ele>
        <time>1970-01-01T01:00:00Z</time>
      </trkpt>
      <trkpt lat="58.404103" lon="15.640597">
        <ele>43.7273</ele>
        <time>1970-01-01T01:00:00Z</time>
      </trkpt>
      <trkpt lat="58.404229" lon="15.640525">
        <ele>43.5455</ele>
        <time>1970-01-01T01:00:00Z</time>
      </trkpt>
      <trkpt lat="58.404308" lon="15.64043">
        <ele>43.5455</ele>
        <time>1970-01-01T01:00:00Z</time>
      </trkpt>
      <trkpt lat="58.404374" lon="15.640312">
        <ele>43.5455</ele>
        <time>1970-01-01T01:00:00Z</time>
      </trkpt>
      <trkpt lat="58.404473" lon="15.64021">
        <ele>43.5455</ele>
        <time>1970-01-01T01:00:00Z</time>
      </trkpt>
      <trkpt lat="58.404562" lon="15.64008">
        <ele>43.5455</ele>
        <time>1970-01-01T01:00:00Z</time>
      </trkpt>
      <trkpt lat="58.404622" lon="15.639943">
        <ele>43.5455</ele>
        <time>1970-01-01T01:00:00Z</time>
      </trkpt>
      <trkpt lat="58.404695" lon="15.639781">
        <ele>43.6364</ele>
        <time>1970-01-01T01:00:00Z</time>
      </trkpt>
      <trkpt lat="58.404728" lon="15.639602">
        <ele>43.7273</ele>
        <time>1970-01-01T01:00:00Z</time>
      </trkpt>
      <trkpt lat="58.404757" lon="15.639403">
        <ele>43.8182</ele>
        <time>1970-01-01T01:00:00Z</time>
      </trkpt>
      <trkpt lat="58.404793" lon="15.639237">
        <ele>43.9091</ele>
        <time>1970-01-01T01:00:00Z</time>
      </trkpt>
      <trkpt lat="58.404793" lon="15.639064">
        <ele>44</ele>
        <time>1970-01-01T01:00:00Z</time>
      </trkpt>
      <trkpt lat="58.404784" lon="15.638875">
        <ele>44.0909</ele>
        <time>1970-01-01T01:00:00Z</time>
      </trkpt>
      <trkpt lat="58.404819" lon="15.638704">
        <ele>44</ele>
        <time>1970-01-01T01:00:00Z</time>
      </trkpt>
      <trkpt lat="58.404867" lon="15.638558">
        <ele>44</ele>
        <time>1970-01-01T01:00:00Z</time>
      </trkpt>
      <trkpt lat="58.40493" lon="15.63838">
        <ele>44</ele>
        <time>1970-01-01T01:00:00Z</time>
      </trkpt>
      <trkpt lat="58.404986" lon="15.638205">
        <ele>44</ele>
        <time>1970-01-01T01:00:00Z</time>
      </trkpt>
      <trkpt lat="58.405042" lon="15.638033">
        <ele>44</ele>
        <time>1970-01-01T01:00:00Z</time>
      </trkpt>
      <trkpt lat="58.405067" lon="15.637865">
        <ele>44</ele>
        <time>1970-01-01T01:00:00Z</time>
      </trkpt>
      <trkpt lat="58.405068" lon="15.637676">
        <ele>44</ele>
        <time>1970-01-01T01:00:00Z</time>
      </trkpt>
      <trkpt lat="58.405127" lon="15.63749">
        <ele>44</ele>
        <time>1970-01-01T01:00:00Z</time>
      </trkpt>
      <trkpt lat="58.405182" lon="15.637346">
        <ele>44</ele>
        <time>1970-01-01T01:00:00Z</time>
      </trkpt>
      <trkpt lat="58.405231" lon="15.637202">
        <ele>44</ele>
        <time>1970-01-01T01:00:00Z</time>
      </trkpt>
      <trkpt lat="58.405294" lon="15.637042">
        <ele>44</ele>
        <time>1970-01-01T01:00:00Z</time>
      </trkpt>
      <trkpt lat="58.405347" lon="15.636895">
        <ele>44</ele>
        <time>1970-01-01T01:00:00Z</time>
      </trkpt>
      <trkpt lat="58.405426" lon="15.636767">
        <ele>44.0909</ele>
        <time>1970-01-01T01:00:00Z</time>
      </trkpt>
      <trkpt lat="58.405511" lon="15.636617">
        <ele>44.1818</ele>
        <time>1970-01-01T01:00:00Z</time>
      </trkpt>
      <trkpt lat="58.405598" lon="15.636542">
        <ele>44.2727</ele>
        <time>1970-01-01T01:00:00Z</time>
      </trkpt>
      <trkpt lat="58.405688" lon="15.636463">
        <ele>44.3636</ele>
        <time>1970-01-01T01:00:00Z</time>
      </trkpt>
      <trkpt lat="58.405769" lon="15.636325">
        <ele>44.4545</ele>
        <time>1970-01-01T01:00:00Z</time>
      </trkpt>
      <trkpt lat="58.405846" lon="15.636181">
        <ele>44.5455</ele>
        <time>1970-01-01T01:00:00Z</time>
      </trkpt>
      <trkpt lat="58.405919" lon="15.636078">
        <ele>44.4545</ele>
        <time>1970-01-01T01:00:00Z</time>
      </trkpt>
      <trkpt lat="58.406008" lon="15.635971">
        <ele>44.3636</ele>
        <time>1970-01-01T01:00:00Z</time>
      </trkpt>
      <trkpt lat="58.406078" lon="15.635853">
        <ele>44.2727</ele>
        <time>1970-01-01T01:00:00Z</time>
      </trkpt>
      <trkpt lat="58.406172" lon="15.635721">
        <ele>44.1818</ele>
        <time>1970-01-01T01:00:00Z</time>
      </trkpt>
      <trkpt lat="58.406269" lon="15.635648">
        <ele>44.0909</ele>
        <time>1970-01-01T01:00:00Z</time>
      </trkpt>
      <trkpt lat="58.406378" lon="15.635625">
        <ele>43.9091</ele>
        <time>1970-01-01T01:00:00Z</time>
      </trkpt>
      <trkpt lat="58.406478" lon="15.635633">
        <ele>43.7273</ele>
        <time>1970-01-01T01:00:00Z</time>
      </trkpt>
      <trkpt lat="58.406573" lon="15.63565">
        <ele>43.5455</ele>
        <time>1970-01-01T01:00:00Z</time>
      </trkpt>
      <trkpt lat="58.406669" lon="15.635699">
        <ele>43.4545</ele>
        <time>1970-01-01T01:00:00Z</time>
      </trkpt>
      <trkpt lat="58.406764" lon="15.63574">
        <ele>43.3636</ele>
        <time>1970-01-01T01:00:00Z</time>
      </trkpt>
      <trkpt lat="58.40687" lon="15.6358">
        <ele>43.2727</ele>
        <time>1970-01-01T01:00:00Z</time>
      </trkpt>
      <trkpt lat="58.406982" lon="15.635861">
        <ele>43.3636</ele>
        <time>1970-01-01T01:00:00Z</time>
      </trkpt>
      <trkpt lat="58.407078" lon="15.635896">
        <ele>43.4545</ele>
        <time>1970-01-01T01:00:00Z</time>
      </trkpt>
      <trkpt lat="58.407188" lon="15.635884">
        <ele>43.5455</ele>
        <time>1970-01-01T01:00:00Z</time>
      </trkpt>
      <trkpt lat="58.407299" lon="15.635869">
        <ele>43.6364</ele>
        <time>1970-01-01T01:00:00Z</time>
      </trkpt>
      <trkpt lat="58.407421" lon="15.635838">
        <ele>43.7273</ele>
        <time>1970-01-01T01:00:00Z</time>
      </trkpt>
      <trkpt lat="58.407536" lon="15.635823">
        <ele>43.8182</ele>
        <time>1970-01-01T01:00:00Z</time>
      </trkpt>
      <trkpt lat="58.407633" lon="15.635821">
        <ele>43.8182</ele>
        <time>1970-01-01T01:00:00Z</time>
      </trkpt>
      <trkpt lat="58.407719" lon="15.635768">
        <ele>43.8182</ele>
        <time>1970-01-01T01:00:00Z</time>
      </trkpt>
      <trkpt lat="58.407822" lon="15.635664">
        <ele>43.7273</ele>
        <time>1970-01-01T01:00:00Z</time>
      </trkpt>
      <trkpt lat="58.407925" lon="15.635599">
        <ele>43.6364</ele>
        <time>1970-01-01T01:00:00Z</time>
      </trkpt>
      <trkpt lat="58.408024" lon="15.635527">
        <ele>43.5455</ele>
        <time>1970-01-01T01:00:00Z</time>
      </trkpt>
      <trkpt lat="58.408098" lon="15.635404">
        <ele>43.4545</ele>
        <time>1970-01-01T01:00:00Z</time>
      </trkpt>
      <trkpt lat="58.408184" lon="15.635268">
        <ele>43.3636</ele>
        <time>1970-01-01T01:00:00Z</time>
      </trkpt>
      <trkpt lat="58.408253" lon="15.635137">
        <ele>43.2727</ele>
        <time>1970-01-01T01:00:00Z</time>
      </trkpt>
      <trkpt lat="58.408351" lon="15.635055">
        <ele>43.5455</ele>
        <time>1970-01-01T01:00:00Z</time>
      </trkpt>
      <trkpt lat="58.408478" lon="15.635019">
        <ele>43.8182</ele>
        <time>1970-01-01T01:00:00Z</time>
      </trkpt>
      <trkpt lat="58.408574" lon="15.634966">
        <ele>44.0909</ele>
        <time>1970-01-01T01:00:00Z</time>
      </trkpt>
      <trkpt lat="58.408676" lon="15.634855">
        <ele>44.4545</ele>
        <time>1970-01-01T01:00:00Z</time>
      </trkpt>
      <trkpt lat="58.408745" lon="15.634737">
        <ele>44.8182</ele>
        <time>1970-01-01T01:00:00Z</time>
      </trkpt>
      <trkpt lat="58.408813" lon="15.634617">
        <ele>45.1818</ele>
        <time>1970-01-01T01:00:00Z</time>
      </trkpt>
      <trkpt lat="58.408896" lon="15.634545">
        <ele>45.5455</ele>
        <time>1970-01-01T01:00:00Z</time>
      </trkpt>
      <trkpt lat="58.40899" lon="15.634476">
        <ele>45.9091</ele>
        <time>1970-01-01T01:00:00Z</time>
      </trkpt>
      <trkpt lat="58.409082" lon="15.634411">
        <ele>46.2727</ele>
        <time>1970-01-01T01:00:00Z</time>
      </trkpt>
      <trkpt lat="58.409172" lon="15.634374">
        <ele>46.3636</ele>
        <time>1970-01-01T01:00:00Z</time>
      </trkpt>
      <trkpt lat="58.409261" lon="15.634326">
        <ele>46.4545</ele>
        <time>1970-01-01T01:00:00Z</time>
      </trkpt>
      <trkpt lat="58.409357" lon="15.634266">
        <ele>46.1818</ele>
        <time>1970-01-01T01:00:00Z</time>
      </trkpt>
      <trkpt lat="58.409468" lon="15.63424">
        <ele>45.9091</ele>
        <time>1970-01-01T01:00:00Z</time>
      </trkpt>
      <trkpt lat="58.409565" lon="15.6342">
        <ele>45.6364</ele>
        <time>1970-01-01T01:00:00Z</time>
      </trkpt>
      <trkpt lat="58.409651" lon="15.634117">
        <ele>45.3636</ele>
        <time>1970-01-01T01:00:00Z</time>
      </trkpt>
      <trkpt lat="58.40975" lon="15.634018">
        <ele>45.0909</ele>
        <time>1970-01-01T01:00:00Z</time>
      </trkpt>
      <trkpt lat="58.409819" lon="15.633885">
        <ele>44.8182</ele>
        <time>1970-01-01T01:00:00Z</time>
      </trkpt>
      <trkpt lat="58.409888" lon="15.633735">
        <ele>44.5455</ele>
        <time>1970-01-01T01:00:00Z</time>
      </trkpt>
      <trkpt lat="58.409968" lon="15.633631">
        <ele>44.2727</ele>
        <time>1970-01-01T01:00:00Z</time>
      </trkpt>
      <trkpt lat="58.410079" lon="15.633546">
        <ele>44.0909</ele>
        <time>1970-01-01T01:00:00Z</time>
      </trkpt>
      <trkpt lat="58.410168" lon="15.633491">
        <ele>44.1818</ele>
        <time>1970-01-01T01:00:00Z</time>
      </trkpt>
      <trkpt lat="58.410264" lon="15.633377">
        <ele>44.3636</ele>
        <time>1970-01-01T01:00:00Z</time>
      </trkpt>
      <trkpt lat="58.410341" lon="15.633248">
        <ele>44.5455</ele>
        <time>1970-01-01T01:00:00Z</time>
      </trkpt>
      <trkpt lat="58.410445" lon="15.633131">
        <ele>44.7273</ele>
        <time>1970-01-01T01:00:00Z</time>
      </trkpt>
      <trkpt lat="58.410559" lon="15.633072">
        <ele>44.9091</ele>
        <time>1970-01-01T01:00:00Z</time>
      </trkpt>
      <trkpt lat="58.410647" lon="15.633023">
        <ele>45.0909</ele>
        <time>1970-01-01T01:00:00Z</time>
      </trkpt>
      <trkpt lat="58.410752" lon="15.632919">
        <ele>45.2727</ele>
        <time>1970-01-01T01:00:00Z</time>
      </trkpt>
      <trkpt lat="58.41083" lon="15.632819">
        <ele>45.4545</ele>
        <time>1970-01-01T01:00:00Z</time>
      </trkpt>
      <trkpt lat="58.410885" lon="15.632673">
        <ele>45.4545</ele>
        <time>1970-01-01T01:00:00Z</time>
      </trkpt>
      <trkpt lat="58.410952" lon="15.632548">
        <ele>45.4545</ele>
        <time>1970-01-01T01:00:00Z</time>
      </trkpt>
      <trkpt lat="58.411045" lon="15.632433">
        <ele>45.3636</ele>
        <time>1970-01-01T01:00:00Z</time>
      </trkpt>
      <trkpt lat="58.411147" lon="15.632382">
        <ele>45.2727</ele>
        <time>1970-01-01T01:00:00Z</time>
      </trkpt>
      <trkpt lat="58.411243" lon="15.632328">
        <ele>45.0909</ele>
        <time>1970-01-01T01:00:00Z</time>
      </trkpt>
      <trkpt lat="58.411335" lon="15.632267">
        <ele>44.9091</ele>
        <time>1970-01-01T01:00:00Z</time>
      </trkpt>
      <trkpt lat="58.41144" lon="15.632203">
        <ele>44.7273</ele>
        <time>1970-01-01T01:00:00Z</time>
      </trkpt>
      <trkpt lat="58.411533" lon="15.632158">
        <ele>44.5455</ele>
        <time>1970-01-01T01:00:00Z</time>
      </trkpt>
      <trkpt lat="58.411627" lon="15.632114">
        <ele>44.3636</ele>
        <time>1970-01-01T01:00:00Z</time>
      </trkpt>
      <trkpt lat="58.411742" lon="15.63205">
        <ele>44.1818</ele>
        <time>1970-01-01T01:00:00Z</time>
      </trkpt>
      <trkpt lat="58.411845" lon="15.63202">
        <ele>44</ele>
        <time>1970-01-01T01:00:00Z</time>
      </trkpt>
      <trkpt lat="58.411939" lon="15.631974">
        <ele>44</ele>
        <time>1970-01-01T01:00:00Z</time>
      </trkpt>
      <trkpt lat="58.412043" lon="15.631976">
        <ele>44</ele>
        <time>1970-01-01T01:00:00Z</time>
      </trkpt>
      <trkpt lat="58.412147" lon="15.631981">
        <ele>44</ele>
        <time>1970-01-01T01:00:00Z</time>
      </trkpt>
      <trkpt lat="58.412241" lon="15.63197">
        <ele>44</ele>
        <time>1970-01-01T01:00:00Z</time>
      </trkpt>
      <trkpt lat="58.412337" lon="15.631972">
        <ele>44</ele>
        <time>1970-01-01T01:00:00Z</time>
      </trkpt>
      <trkpt lat="58.412438" lon="15.632039">
        <ele>44</ele>
        <time>1970-01-01T01:00:00Z</time>
      </trkpt>
      <trkpt lat="58.412528" lon="15.632191">
        <ele>43.9091</ele>
        <time>1970-01-01T01:00:00Z</time>
      </trkpt>
      <trkpt lat="58.412603" lon="15.63232">
        <ele>43.8182</ele>
        <time>1970-01-01T01:00:00Z</time>
      </trkpt>
      <trkpt lat="58.412634" lon="15.632493">
        <ele>43.5455</ele>
        <time>1970-01-01T01:00:00Z</time>
      </trkpt>
      <trkpt lat="58.412698" lon="15.632656">
        <ele>43.2727</ele>
        <time>1970-01-01T01:00:00Z</time>
      </trkpt>
      <trkpt lat="58.412754" lon="15.632817">
        <ele>43</ele>
        <time>1970-01-01T01:00:00Z</time>
      </trkpt>
      <trkpt lat="58.412808" lon="15.633004">
        <ele>42.7273</ele>
        <time>1970-01-01T01:00:00Z</time>
      </trkpt>
      <trkpt lat="58.412885" lon="15.63315">
        <ele>42.4545</ele>
        <time>1970-01-01T01:00:00Z</time>
      </trkpt>
      <trkpt lat="58.412985" lon="15.633209">
        <ele>42.1818</ele>
        <time>1970-01-01T01:00:00Z</time>
      </trkpt>
      <trkpt lat="58.413089" lon="15.633227">
        <ele>41.9091</ele>
        <time>1970-01-01T01:00:00Z</time>
      </trkpt>
      <trkpt lat="58.413212" lon="15.633266">
        <ele>41.6364</ele>
        <time>1970-01-01T01:00:00Z</time>
      </trkpt>
      <trkpt lat="58.413336" lon="15.633309">
        <ele>41.5455</ele>
        <time>1970-01-01T01:00:00Z</time>
      </trkpt>
      <trkpt lat="58.413453" lon="15.633352">
        <ele>41.5455</ele>
        <time>1970-01-01T01:00:00Z</time>
      </trkpt>
      <trkpt lat="58.413549" lon="15.633399">
        <ele>41.5455</ele>
        <time>1970-01-01T01:00:00Z</time>
      </trkpt>
      <trkpt lat="58.413638" lon="15.633456">
        <ele>41.7273</ele>
        <time>1970-01-01T01:00:00Z</time>
      </trkpt>
      <trkpt lat="58.413737" lon="15.633492">
        <ele>41.9091</ele>
        <time>1970-01-01T01:00:00Z</time>
      </trkpt>
      <trkpt lat="58.413829" lon="15.633547">
        <ele>42.0909</ele>
        <time>1970-01-01T01:00:00Z</time>
      </trkpt>
      <trkpt lat="58.413931" lon="15.63358">
        <ele>42.2727</ele>
        <time>1970-01-01T01:00:00Z</time>
      </trkpt>
      <trkpt lat="58.414033" lon="15.633574">
        <ele>42.4545</ele>
        <time>1970-01-01T01:00:00Z</time>
      </trkpt>
      <trkpt lat="58.414125" lon="15.633561">
        <ele>42.6364</ele>
        <time>1970-01-01T01:00:00Z</time>
      </trkpt>
      <trkpt lat="58.414213" lon="15.633517">
        <ele>42.6364</ele>
        <time>1970-01-01T01:00:00Z</time>
      </trkpt>
      <trkpt lat="58.414303" lon="15.633467">
        <ele>42.6364</ele>
        <time>1970-01-01T01:00:00Z</time>
      </trkpt>
      <trkpt lat="58.414393" lon="15.633432">
        <ele>42.4545</ele>
        <time>1970-01-01T01:00:00Z</time>
      </trkpt>
      <trkpt lat="58.414489" lon="15.633355">
        <ele>42.2727</ele>
        <time>1970-01-01T01:00:00Z</time>
      </trkpt>
      <trkpt lat="58.414591" lon="15.633332">
        <ele>42.0909</ele>
        <time>1970-01-01T01:00:00Z</time>
      </trkpt>
      <trkpt lat="58.414689" lon="15.633263">
        <ele>42.0909</ele>
        <time>1970-01-01T01:00:00Z</time>
      </trkpt>
      <trkpt lat="58.414788" lon="15.633207">
        <ele>42.0909</ele>
        <time>1970-01-01T01:00:00Z</time>
      </trkpt>
      <trkpt lat="58.414886" lon="15.633178">
        <ele>42.0909</ele>
        <time>1970-01-01T01:00:00Z</time>
      </trkpt>
      <trkpt lat="58.415001" lon="15.633152">
        <ele>41.9091</ele>
        <time>1970-01-01T01:00:00Z</time>
      </trkpt>
      <trkpt lat="58.415098" lon="15.633098">
        <ele>41.7273</ele>
        <time>1970-01-01T01:00:00Z</time>
      </trkpt>
      <trkpt lat="58.415192" lon="15.632995">
        <ele>41.5455</ele>
        <time>1970-01-01T01:00:00Z</time>
      </trkpt>
      <trkpt lat="58.415275" lon="15.632896">
        <ele>41.5455</ele>
        <time>1970-01-01T01:00:00Z</time>
      </trkpt>
      <trkpt lat="58.415379" lon="15.632801">
        <ele>41.5455</ele>
        <time>1970-01-01T01:00:00Z</time>
      </trkpt>
      <trkpt lat="58.415474" lon="15.632713">
        <ele>41.6364</ele>
        <time>1970-01-01T01:00:00Z</time>
      </trkpt>
      <trkpt lat="58.415563" lon="15.632595">
        <ele>41.7273</ele>
        <time>1970-01-01T01:00:00Z</time>
      </trkpt>
      <trkpt lat="58.415627" lon="15.632471">
        <ele>41.8182</ele>
        <time>1970-01-01T01:00:00Z</time>
      </trkpt>
      <trkpt lat="58.415693" lon="15.632335">
        <ele>41.7273</ele>
        <time>1970-01-01T01:00:00Z</time>
      </trkpt>
      <trkpt lat="58.415768" lon="15.632191">
        <ele>41.5455</ele>
        <time>1970-01-01T01:00:00Z</time>
      </trkpt>
      <trkpt lat="58.41583" lon="15.632047">
        <ele>41.3636</ele>
        <time>1970-01-01T01:00:00Z</time>
      </trkpt>
      <trkpt lat="58.415897" lon="15.631848">
        <ele>41.3636</ele>
        <time>1970-01-01T01:00:00Z</time>
      </trkpt>
      <trkpt lat="58.415963" lon="15.63164">
        <ele>41.3636</ele>
        <time>1970-01-01T01:00:00Z</time>
      </trkpt>
      <trkpt lat="58.416025" lon="15.63143">
        <ele>41.2727</ele>
        <time>1970-01-01T01:00:00Z</time>
      </trkpt>
      <trkpt lat="58.416071" lon="15.631241">
        <ele>41.1818</ele>
        <time>1970-01-01T01:00:00Z</time>
      </trkpt>
      <trkpt lat="58.416106" lon="15.631047">
        <ele>41.0909</ele>
        <time>1970-01-01T01:00:00Z</time>
      </trkpt>
      <trkpt lat="58.416123" lon="15.630862">
        <ele>40.9091</ele>
        <time>1970-01-01T01:00:00Z</time>
      </trkpt>
      <trkpt lat="58.416117" lon="15.630685">
        <ele>40.7273</ele>
        <time>1970-01-01T01:00:00Z</time>
      </trkpt>
      <trkpt lat="58.416128" lon="15.630484">
        <ele>40.5455</ele>
        <time>1970-01-01T01:00:00Z</time>
      </trkpt>
      <trkpt lat="58.416141" lon="15.630283">
        <ele>40.3636</ele>
        <time>1970-01-01T01:00:00Z</time>
      </trkpt>
      <trkpt lat="58.416167" lon="15.630067">
        <ele>40.2727</ele>
        <time>1970-01-01T01:00:00Z</time>
      </trkpt>
      <trkpt lat="58.416193" lon="15.629899">
        <ele>40.1818</ele>
        <time>1970-01-01T01:00:00Z</time>
      </trkpt>
      <trkpt lat="58.416208" lon="15.629716">
        <ele>40.0909</ele>
        <time>1970-01-01T01:00:00Z</time>
      </trkpt>
      <trkpt lat="58.416225" lon="15.629485">
        <ele>40</ele>
        <time>1970-01-01T01:00:00Z</time>
      </trkpt>
      <trkpt lat="58.416249" lon="15.629301">
        <ele>40</ele>
        <time>1970-01-01T01:00:00Z</time>
      </trkpt>
      <trkpt lat="58.416279" lon="15.629132">
        <ele>40</ele>
        <time>1970-01-01T01:00:00Z</time>
      </trkpt>
      <trkpt lat="58.416328" lon="15.628973">
        <ele>40</ele>
        <time>1970-01-01T01:00:00Z</time>
      </trkpt>
      <trkpt lat="58.416379" lon="15.628796">
        <ele>40</ele>
        <time>1970-01-01T01:00:00Z</time>
      </trkpt>
      <trkpt lat="58.416446" lon="15.62863">
        <ele>40</ele>
        <time>1970-01-01T01:00:00Z</time>
      </trkpt>
      <trkpt lat="58.416541" lon="15.628481">
        <ele>40</ele>
        <time>1970-01-01T01:00:00Z</time>
      </trkpt>
      <trkpt lat="58.416613" lon="15.628379">
        <ele>40.3636</ele>
        <time>1970-01-01T01:00:00Z</time>
      </trkpt>
      <trkpt lat="58.416708" lon="15.628277">
        <ele>40.7273</ele>
        <time>1970-01-01T01:00:00Z</time>
      </trkpt>
      <trkpt lat="58.4168" lon="15.628216">
        <ele>41.0909</ele>
        <time>1970-01-01T01:00:00Z</time>
      </trkpt>
      <trkpt lat="58.416919" lon="15.628197">
        <ele>41.4545</ele>
        <time>1970-01-01T01:00:00Z</time>
      </trkpt>
      <trkpt lat="58.417013" lon="15.628215">
        <ele>41.8182</ele>
        <time>1970-01-01T01:00:00Z</time>
      </trkpt>
      <trkpt lat="58.41712" lon="15.628274">
        <ele>42.1818</ele>
        <time>1970-01-01T01:00:00Z</time>
      </trkpt>
      <trkpt lat="58.417236" lon="15.628366">
        <ele>42.5455</ele>
        <time>1970-01-01T01:00:00Z</time>
      </trkpt>
      <trkpt lat="58.417319" lon="15.628439">
        <ele>42.8182</ele>
        <time>1970-01-01T01:00:00Z</time>
      </trkpt>
      <trkpt lat="58.417431" lon="15.628542">
        <ele>43.0909</ele>
        <time>1970-01-01T01:00:00Z</time>
      </trkpt>
      <trkpt lat="58.417534" lon="15.628632">
        <ele>43.3636</ele>
        <time>1970-01-01T01:00:00Z</time>
      </trkpt>
      <trkpt lat="58.417642" lon="15.628713">
        <ele>43.6364</ele>
        <time>1970-01-01T01:00:00Z</time>
      </trkpt>
      <trkpt lat="58.417747" lon="15.6288">
        <ele>43.5455</ele>
        <time>1970-01-01T01:00:00Z</time>
      </trkpt>
      <trkpt lat="58.417831" lon="15.628895">
        <ele>43.3636</ele>
        <time>1970-01-01T01:00:00Z</time>
      </trkpt>
      <trkpt lat="58.41791" lon="15.62904">
        <ele>43.1818</ele>
        <time>1970-01-01T01:00:00Z</time>
      </trkpt>
      <trkpt lat="58.417967" lon="15.629229">
        <ele>43</ele>
        <time>1970-01-01T01:00:00Z</time>
      </trkpt>
      <trkpt lat="58.418028" lon="15.629429">
        <ele>42.8182</ele>
        <time>1970-01-01T01:00:00Z</time>
      </trkpt>
      <trkpt lat="58.418073" lon="15.629645">
        <ele>42.6364</ele>
        <time>1970-01-01T01:00:00Z</time>
      </trkpt>
      <trkpt lat="58.418104" lon="15.629827">
        <ele>42.4545</ele>
        <time>1970-01-01T01:00:00Z</time>
      </trkpt>
      <trkpt lat="58.418135" lon="15.630004">
        <ele>42.3636</ele>
        <time>1970-01-01T01:00:00Z</time>
      </trkpt>
      <trkpt lat="58.418171" lon="15.630197">
        <ele>42.2727</ele>
        <time>1970-01-01T01:00:00Z</time>
      </trkpt>
      <trkpt lat="58.418211" lon="15.630383">
        <ele>42.1818</ele>
        <time>1970-01-01T01:00:00Z</time>
      </trkpt>
      <trkpt lat="58.418249" lon="15.630544">
        <ele>42.0909</ele>
        <time>1970-01-01T01:00:00Z</time>
      </trkpt>
      <trkpt lat="58.418295" lon="15.630732">
        <ele>42</ele>
        <time>1970-01-01T01:00:00Z</time>
      </trkpt>
      <trkpt lat="58.41833" lon="15.630904">
        <ele>42</ele>
        <time>1970-01-01T01:00:00Z</time>
      </trkpt>
      <trkpt lat="58.418357" lon="15.63111">
        <ele>42</ele>
        <time>1970-01-01T01:00:00Z</time>
      </trkpt>
      <trkpt lat="58.418417" lon="15.631312">
        <ele>42</ele>
        <time>1970-01-01T01:00:00Z</time>
      </trkpt>
      <trkpt lat="58.418449" lon="15.63155">
        <ele>42</ele>
        <time>1970-01-01T01:00:00Z</time>
      </trkpt>
      <trkpt lat="58.418469" lon="15.631737">
        <ele>42</ele>
        <time>1970-01-01T01:00:00Z</time>
      </trkpt>
      <trkpt lat="58.4185" lon="15.631969">
        <ele>42</ele>
        <time>1970-01-01T01:00:00Z</time>
      </trkpt>
      <trkpt lat="58.418534" lon="15.632171">
        <ele>42.1818</ele>
        <time>1970-01-01T01:00:00Z</time>
      </trkpt>
      <trkpt lat="58.418581" lon="15.63238">
        <ele>42.4545</ele>
        <time>1970-01-01T01:00:00Z</time>
      </trkpt>
      <trkpt lat="58.418645" lon="15.63254">
        <ele>42.7273</ele>
        <time>1970-01-01T01:00:00Z</time>
      </trkpt>
      <trkpt lat="58.418736" lon="15.632696">
        <ele>43</ele>
        <time>1970-01-01T01:00:00Z</time>
      </trkpt>
      <trkpt lat="58.418797" lon="15.632836">
        <ele>43.2727</ele>
        <time>1970-01-01T01:00:00Z</time>
      </trkpt>
      <trkpt lat="58.418881" lon="15.632939">
        <ele>43.5455</ele>
        <time>1970-01-01T01:00:00Z</time>
      </trkpt>
      <trkpt lat="58.418983" lon="15.633039">
        <ele>43.8182</ele>
        <time>1970-01-01T01:00:00Z</time>
      </trkpt>
      <trkpt lat="58.419098" lon="15.633065">
        <ele>44</ele>
        <time>1970-01-01T01:00:00Z</time>
      </trkpt>
      <trkpt lat="58.41919" lon="15.633063">
        <ele>44.0909</ele>
        <time>1970-01-01T01:00:00Z</time>
      </trkpt>
      <trkpt lat="58.419322" lon="15.63305">
        <ele>44.1818</ele>
        <time>1970-01-01T01:00:00Z</time>
      </trkpt>
      <trkpt lat="58.419449" lon="15.633047">
        <ele>44.2727</ele>
        <time>1970-01-01T01:00:00Z</time>
      </trkpt>
      <trkpt lat="58.419559" lon="15.633047">
        <ele>44.1818</ele>
        <time>1970-01-01T01:00:00Z</time>
      </trkpt>
      <trkpt lat="58.419653" lon="15.633033">
        <ele>44</ele>
        <time>1970-01-01T01:00:00Z</time>
      </trkpt>
      <trkpt lat="58.419752" lon="15.63297">
        <ele>43.8182</ele>
        <time>1970-01-01T01:00:00Z</time>
      </trkpt>
      <trkpt lat="58.419842" lon="15.63287">
        <ele>43.6364</ele>
        <time>1970-01-01T01:00:00Z</time>
      </trkpt>
      <trkpt lat="58.419939" lon="15.632744">
        <ele>43.4545</ele>
        <time>1970-01-01T01:00:00Z</time>
      </trkpt>
      <trkpt lat="58.420028" lon="15.632625">
        <ele>43.0909</ele>
        <time>1970-01-01T01:00:00Z</time>
      </trkpt>
      <trkpt lat="58.420117" lon="15.632447">
        <ele>42.7273</ele>
        <time>1970-01-01T01:00:00Z</time>
      </trkpt>
      <trkpt lat="58.420214" lon="15.632311">
        <ele>42.4545</ele>
        <time>1970-01-01T01:00:00Z</time>
      </trkpt>
      <trkpt lat="58.420331" lon="15.632233">
        <ele>42.2727</ele>
        <time>1970-01-01T01:00:00Z</time>
      </trkpt>
      <trkpt lat="58.420442" lon="15.632205">
        <ele>42.0909</ele>
        <time>1970-01-01T01:00:00Z</time>
      </trkpt>
      <trkpt lat="58.42055" lon="15.632304">
        <ele>41.7273</ele>
        <time>1970-01-01T01:00:00Z</time>
      </trkpt>
      <trkpt lat="58.420647" lon="15.632271">
        <ele>41.3636</ele>
        <time>1970-01-01T01:00:00Z</time>
      </trkpt>
      <trkpt lat="58.42074" lon="15.632221">
        <ele>41</ele>
        <time>1970-01-01T01:00:00Z</time>
      </trkpt>
      <trkpt lat="58.420832" lon="15.632222">
        <ele>40.6364</ele>
        <time>1970-01-01T01:00:00Z</time>
      </trkpt>
      <trkpt lat="58.420929" lon="15.632207">
        <ele>40.2727</ele>
        <time>1970-01-01T01:00:00Z</time>
      </trkpt>
      <trkpt lat="58.421016" lon="15.632134">
        <ele>40.1818</ele>
        <time>1970-01-01T01:00:00Z</time>
      </trkpt>
      <trkpt lat="58.421082" lon="15.632004">
        <ele>40.2727</ele>
        <time>1970-01-01T01:00:00Z</time>
      </trkpt>
      <trkpt lat="58.421122" lon="15.631837">
        <ele>40.5455</ele>
        <time>1970-01-01T01:00:00Z</time>
      </trkpt>
      <trkpt lat="58.421152" lon="15.631666">
        <ele>40.8182</ele>
        <time>1970-01-01T01:00:00Z</time>
      </trkpt>
      <trkpt lat="58.421164" lon="15.631463">
        <ele>41.3636</ele>
        <time>1970-01-01T01:00:00Z</time>
      </trkpt>
      <trkpt lat="58.421167" lon="15.631246">
        <ele>41.9091</ele>
        <time>1970-01-01T01:00:00Z</time>
      </trkpt>
      <trkpt lat="58.421255" lon="15.63108">
        <ele>42.6364</ele>
        <time>1970-01-01T01:00:00Z</time>
      </trkpt>
      <trkpt lat="58.421357" lon="15.630882">
        <ele>43.3636</ele>
        <time>1970-01-01T01:00:00Z</time>
      </trkpt>
      <trkpt lat="58.421391" lon="15.630685">
        <ele>43.8182</ele>
        <time>1970-01-01T01:00:00Z</time>
      </trkpt>
      <trkpt lat="58.421409" lon="15.630484">
        <ele>44.2727</ele>
        <time>1970-01-01T01:00:00Z</time>
      </trkpt>
      <trkpt lat="58.421434" lon="15.630273">
        <ele>44.7273</ele>
        <time>1970-01-01T01:00:00Z</time>
      </trkpt>
      <trkpt lat="58.421431" lon="15.63007">
        <ele>44.9091</ele>
        <time>1970-01-01T01:00:00Z</time>
      </trkpt>
      <trkpt lat="58.421342" lon="15.629932">
        <ele>45.1818</ele>
        <time>1970-01-01T01:00:00Z</time>
      </trkpt>
      <trkpt lat="58.421242" lon="15.629879">
        <ele>45.2727</ele>
        <time>1970-01-01T01:00:00Z</time>
      </trkpt>
      <trkpt lat="58.421146" lon="15.629855">
        <ele>45.3636</ele>
        <time>1970-01-01T01:00:00Z</time>
      </trkpt>
      <trkpt lat="58.421042" lon="15.629812">
        <ele>45.1818</ele>
        <time>1970-01-01T01:00:00Z</time>
      </trkpt>
      <trkpt lat="58.42093" lon="15.629751">
        <ele>45</ele>
        <time>1970-01-01T01:00:00Z</time>
      </trkpt>
      <trkpt lat="58.420835" lon="15.62968">
        <ele>45</ele>
        <time>1970-01-01T01:00:00Z</time>
      </trkpt>
      <trkpt lat="58.420734" lon="15.629585">
        <ele>45</ele>
        <time>1970-01-01T01:00:00Z</time>
      </trkpt>
      <trkpt lat="58.420624" lon="15.629498">
        <ele>45.3636</ele>
        <time>1970-01-01T01:00:00Z</time>
      </trkpt>
      <trkpt lat="58.42053" lon="15.62937">
        <ele>45.7273</ele>
        <time>1970-01-01T01:00:00Z</time>
      </trkpt>
      <trkpt lat="58.420473" lon="15.629232">
        <ele>46.0909</ele>
        <time>1970-01-01T01:00:00Z</time>
      </trkpt>
      <trkpt lat="58.42041" lon="15.62907">
        <ele>46.4545</ele>
        <time>1970-01-01T01:00:00Z</time>
      </trkpt>
      <trkpt lat="58.420335" lon="15.628915">
        <ele>46.7273</ele>
        <time>1970-01-01T01:00:00Z</time>
      </trkpt>
      <trkpt lat="58.42025" lon="15.628762">
        <ele>47</ele>
        <time>1970-01-01T01:00:00Z</time>
      </trkpt>
      <trkpt lat="58.420187" lon="15.62861">
        <ele>47.2727</ele>
        <time>1970-01-01T01:00:00Z</time>
      </trkpt>
      <trkpt lat="58.420089" lon="15.628484">
        <ele>47.4545</ele>
        <time>1970-01-01T01:00:00Z</time>
      </trkpt>
      <trkpt lat="58.419985" lon="15.628384">
        <ele>47.6364</ele>
        <time>1970-01-01T01:00:00Z</time>
      </trkpt>
      <trkpt lat="58.419871" lon="15.628243">
        <ele>47.6364</ele>
        <time>1970-01-01T01:00:00Z</time>
      </trkpt>
      <trkpt lat="58.419749" lon="15.628071">
        <ele>47.6364</ele>
        <time>1970-01-01T01:00:00Z</time>
      </trkpt>
      <trkpt lat="58.419653" lon="15.627931">
        <ele>47.5455</ele>
        <time>1970-01-01T01:00:00Z</time>
      </trkpt>
      <trkpt lat="58.419558" lon="15.627783">
        <ele>47.4545</ele>
        <time>1970-01-01T01:00:00Z</time>
      </trkpt>
      <trkpt lat="58.419449" lon="15.627662">
        <ele>47.3636</ele>
        <time>1970-01-01T01:00:00Z</time>
      </trkpt>
      <trkpt lat="58.419357" lon="15.627556">
        <ele>47.2727</ele>
        <time>1970-01-01T01:00:00Z</time>
      </trkpt>
      <trkpt lat="58.419276" lon="15.627468">
        <ele>47</ele>
        <time>1970-01-01T01:00:00Z</time>
      </trkpt>
      <trkpt lat="58.419163" lon="15.62738">
        <ele>46.7273</ele>
        <time>1970-01-01T01:00:00Z</time>
      </trkpt>
      <trkpt lat="58.419052" lon="15.627277">
        <ele>46.4545</ele>
        <time>1970-01-01T01:00:00Z</time>
      </trkpt>
      <trkpt lat="58.418942" lon="15.6272">
        <ele>46.2727</ele>
        <time>1970-01-01T01:00:00Z</time>
      </trkpt>
      <trkpt lat="58.418822" lon="15.627132">
        <ele>46.0909</ele>
        <time>1970-01-01T01:00:00Z</time>
      </trkpt>
      <trkpt lat="58.418732" lon="15.627063">
        <ele>45.9091</ele>
        <time>1970-01-01T01:00:00Z</time>
      </trkpt>
      <trkpt lat="58.418619" lon="15.627014">
        <ele>45.7273</ele>
        <time>1970-01-01T01:00:00Z</time>
      </trkpt>
      <trkpt lat="58.418503" lon="15.627023">
        <ele>45.5455</ele>
        <time>1970-01-01T01:00:00Z</time>
      </trkpt>
      <trkpt lat="58.418397" lon="15.627011">
        <ele>45.1818</ele>
        <time>1970-01-01T01:00:00Z</time>
      </trkpt>
      <trkpt lat="58.418304" lon="15.627022">
        <ele>44.8182</ele>
        <time>1970-01-01T01:00:00Z</time>
      </trkpt>
      <trkpt lat="58.418214" lon="15.627027">
        <ele>44.4545</ele>
        <time>1970-01-01T01:00:00Z</time>
      </trkpt>
      <trkpt lat="58.418102" lon="15.627028">
        <ele>44.2727</ele>
        <time>1970-01-01T01:00:00Z</time>
      </trkpt>
      <trkpt lat="58.418002" lon="15.627028">
        <ele>44.0909</ele>
        <time>1970-01-01T01:00:00Z</time>
      </trkpt>
      <trkpt lat="58.41789" lon="15.627023">
        <ele>43.9091</ele>
        <time>1970-01-01T01:00:00Z</time>
      </trkpt>
      <trkpt lat="58.417787" lon="15.626998">
        <ele>43.7273</ele>
        <time>1970-01-01T01:00:00Z</time>
      </trkpt>
      <trkpt lat="58.41769" lon="15.626982">
        <ele>43.3636</ele>
        <time>1970-01-01T01:00:00Z</time>
      </trkpt>
      <trkpt lat="58.417563" lon="15.627003">
        <ele>43</ele>
        <time>1970-01-01T01:00:00Z</time>
      </trkpt>
      <trkpt lat="58.417446" lon="15.627002">
        <ele>42.6364</ele>
        <time>1970-01-01T01:00:00Z</time>
      </trkpt>
      <trkpt lat="58.417315" lon="15.627018">
        <ele>42.2727</ele>
        <time>1970-01-01T01:00:00Z</time>
      </trkpt>
      <trkpt lat="58.417188" lon="15.627018">
        <ele>42.0909</ele>
        <time>1970-01-01T01:00:00Z</time>
      </trkpt>
      <trkpt lat="58.417085" lon="15.627005">
        <ele>41.9091</ele>
        <time>1970-01-01T01:00:00Z</time>
      </trkpt>
      <trkpt lat="58.416983" lon="15.627004">
        <ele>41.7273</ele>
        <time>1970-01-01T01:00:00Z</time>
      </trkpt>
      <trkpt lat="58.416875" lon="15.627019">
        <ele>41.5455</ele>
        <time>1970-01-01T01:00:00Z</time>
      </trkpt>
      <trkpt lat="58.416777" lon="15.627042">
        <ele>41.3636</ele>
        <time>1970-01-01T01:00:00Z</time>
      </trkpt>
      <trkpt lat="58.41668" lon="15.62713">
        <ele>41.2727</ele>
        <time>1970-01-01T01:00:00Z</time>
      </trkpt>
      <trkpt lat="58.416587" lon="15.62725">
        <ele>41.1818</ele>
        <time>1970-01-01T01:00:00Z</time>
      </trkpt>
      <trkpt lat="58.416492" lon="15.627378">
        <ele>41.0909</ele>
        <time>1970-01-01T01:00:00Z</time>
      </trkpt>
      <trkpt lat="58.416415" lon="15.627487">
        <ele>41</ele>
        <time>1970-01-01T01:00:00Z</time>
      </trkpt>
      <trkpt lat="58.416336" lon="15.627604">
        <ele>40.9091</ele>
        <time>1970-01-01T01:00:00Z</time>
      </trkpt>
      <trkpt lat="58.416259" lon="15.627765">
        <ele>40.8182</ele>
        <time>1970-01-01T01:00:00Z</time>
      </trkpt>
      <trkpt lat="58.4162" lon="15.627918">
        <ele>40.7273</ele>
        <time>1970-01-01T01:00:00Z</time>
      </trkpt>
      <trkpt lat="58.416147" lon="15.628079">
        <ele>40.6364</ele>
        <time>1970-01-01T01:00:00Z</time>
      </trkpt>
      <trkpt lat="58.416077" lon="15.628243">
        <ele>40.5455</ele>
        <time>1970-01-01T01:00:00Z</time>
      </trkpt>
      <trkpt lat="58.41601" lon="15.628377">
        <ele>40.4545</ele>
        <time>1970-01-01T01:00:00Z</time>
      </trkpt>
      <trkpt lat="58.415952" lon="15.628526">
        <ele>40.3636</ele>
        <time>1970-01-01T01:00:00Z</time>
      </trkpt>
      <trkpt lat="58.415888" lon="15.628696">
        <ele>40.1818</ele>
        <time>1970-01-01T01:00:00Z</time>
      </trkpt>
      <trkpt lat="58.415814" lon="15.628872">
        <ele>40</ele>
        <time>1970-01-01T01:00:00Z</time>
      </trkpt>
      <trkpt lat="58.415754" lon="15.629037">
        <ele>40</ele>
        <time>1970-01-01T01:00:00Z</time>
      </trkpt>
      <trkpt lat="58.415702" lon="15.629207">
        <ele>40</ele>
        <time>1970-01-01T01:00:00Z</time>
      </trkpt>
      <trkpt lat="58.415655" lon="15.629385">
        <ele>40.2727</ele>
        <time>1970-01-01T01:00:00Z</time>
      </trkpt>
      <trkpt lat="58.4156" lon="15.629588">
        <ele>40.5455</ele>
        <time>1970-01-01T01:00:00Z</time>
      </trkpt>
      <trkpt lat="58.415558" lon="15.629793">
        <ele>40.9091</ele>
        <time>1970-01-01T01:00:00Z</time>
      </trkpt>
      <trkpt lat="58.41553" lon="15.629986">
        <ele>41.2727</ele>
        <time>1970-01-01T01:00:00Z</time>
      </trkpt>
      <trkpt lat="58.4155" lon="15.630168">
        <ele>41.6364</ele>
        <time>1970-01-01T01:00:00Z</time>
      </trkpt>
      <trkpt lat="58.415437" lon="15.630354">
        <ele>42</ele>
        <time>1970-01-01T01:00:00Z</time>
      </trkpt>
      <trkpt lat="58.415364" lon="15.630498">
        <ele>42.3636</ele>
        <time>1970-01-01T01:00:00Z</time>
      </trkpt>
      <trkpt lat="58.415274" lon="15.630632">
        <ele>42.7273</ele>
        <time>1970-01-01T01:00:00Z</time>
      </trkpt>
      <trkpt lat="58.415192" lon="15.630741">
        <ele>43.0909</ele>
        <time>1970-01-01T01:00:00Z</time>
      </trkpt>
      <trkpt lat="58.4151" lon="15.630807">
        <ele>43.4545</ele>
        <time>1970-01-01T01:00:00Z</time>
      </trkpt>
      <trkpt lat="58.414977" lon="15.630836">
        <ele>43.8182</ele>
        <time>1970-01-01T01:00:00Z</time>
      </trkpt>
      <trkpt lat="58.414866" lon="15.63089">
        <ele>43.9091</ele>
        <time>1970-01-01T01:00:00Z</time>
      </trkpt>
      <trkpt lat="58.414778" lon="15.630957">
        <ele>44</ele>
        <time>1970-01-01T01:00:00Z</time>
      </trkpt>
      <trkpt lat="58.414679" lon="15.631032">
        <ele>44</ele>
        <time>1970-01-01T01:00:00Z</time>
      </trkpt>
      <trkpt lat="58.414566" lon="15.631089">
        <ele>44</ele>
        <time>1970-01-01T01:00:00Z</time>
      </trkpt>
      <trkpt lat="58.414451" lon="15.631118">
        <ele>44</ele>
        <time>1970-01-01T01:00:00Z</time>
      </trkpt>
      <trkpt lat="58.414365" lon="15.631178">
        <ele>43.8182</ele>
        <time>1970-01-01T01:00:00Z</time>
      </trkpt>
      <trkpt lat="58.414267" lon="15.631232">
        <ele>43.5455</ele>
        <time>1970-01-01T01:00:00Z</time>
      </trkpt>
      <trkpt lat="58.41417" lon="15.631254">
        <ele>43.2727</ele>
        <time>1970-01-01T01:00:00Z</time>
      </trkpt>
      <trkpt lat="58.414066" lon="15.631309">
        <ele>43</ele>
        <time>1970-01-01T01:00:00Z</time>
      </trkpt>
      <trkpt lat="58.413971" lon="15.631352">
        <ele>42.9091</ele>
        <time>1970-01-01T01:00:00Z</time>
      </trkpt>
      <trkpt lat="58.413881" lon="15.631433">
        <ele>42.8182</ele>
        <time>1970-01-01T01:00:00Z</time>
      </trkpt>
      <trkpt lat="58.41379" lon="15.631482">
        <ele>42.7273</ele>
        <time>1970-01-01T01:00:00Z</time>
      </trkpt>
      <trkpt lat="58.413665" lon="15.631455">
        <ele>42.6364</ele>
        <time>1970-01-01T01:00:00Z</time>
      </trkpt>
      <trkpt lat="58.413551" lon="15.631434">
        <ele>42.5455</ele>
        <time>1970-01-01T01:00:00Z</time>
      </trkpt>
      <trkpt lat="58.413464" lon="15.631352">
        <ele>42.4545</ele>
        <time>1970-01-01T01:00:00Z</time>
      </trkpt>
      <trkpt lat="58.413375" lon="15.631225">
        <ele>42.5455</ele>
        <time>1970-01-01T01:00:00Z</time>
      </trkpt>
      <trkpt lat="58.413298" lon="15.631068">
        <ele>42.9091</ele>
        <time>1970-01-01T01:00:00Z</time>
      </trkpt>
      <trkpt lat="58.413229" lon="15.63093">
        <ele>43.3636</ele>
        <time>1970-01-01T01:00:00Z</time>
      </trkpt>
      <trkpt lat="58.413143" lon="15.6308">
        <ele>43.8182</ele>
        <time>1970-01-01T01:00:00Z</time>
      </trkpt>
      <trkpt lat="58.413067" lon="15.63065">
        <ele>44.2727</ele>
        <time>1970-01-01T01:00:00Z</time>
      </trkpt>
      <trkpt lat="58.412987" lon="15.630508">
        <ele>44.5455</ele>
        <time>1970-01-01T01:00:00Z</time>
      </trkpt>
      <trkpt lat="58.412898" lon="15.630422">
        <ele>44.8182</ele>
        <time>1970-01-01T01:00:00Z</time>
      </trkpt>
      <trkpt lat="58.412774" lon="15.630403">
        <ele>45</ele>
        <time>1970-01-01T01:00:00Z</time>
      </trkpt>
      <trkpt lat="58.412652" lon="15.630412">
        <ele>45.1818</ele>
        <time>1970-01-01T01:00:00Z</time>
      </trkpt>
      <trkpt lat="58.412541" lon="15.630434">
        <ele>45.3636</ele>
        <time>1970-01-01T01:00:00Z</time>
      </trkpt>
      <trkpt lat="58.412432" lon="15.630488">
        <ele>45.5455</ele>
        <time>1970-01-01T01:00:00Z</time>
      </trkpt>
      <trkpt lat="58.412331" lon="15.630527">
        <ele>45.5455</ele>
        <time>1970-01-01T01:00:00Z</time>
      </trkpt>
      <trkpt lat="58.412213" lon="15.630594">
        <ele>45.4545</ele>
        <time>1970-01-01T01:00:00Z</time>
      </trkpt>
      <trkpt lat="58.412111" lon="15.630651">
        <ele>45.3636</ele>
        <time>1970-01-01T01:00:00Z</time>
      </trkpt>
      <trkpt lat="58.412016" lon="15.630701">
        <ele>45.2727</ele>
        <time>1970-01-01T01:00:00Z</time>
      </trkpt>
      <trkpt lat="58.411904" lon="15.630759">
        <ele>45.1818</ele>
        <time>1970-01-01T01:00:00Z</time>
      </trkpt>
      <trkpt lat="58.411814" lon="15.63079">
        <ele>45.0909</ele>
        <time>1970-01-01T01:00:00Z</time>
      </trkpt>
      <trkpt lat="58.4117" lon="15.630834">
        <ele>45.2727</ele>
        <time>1970-01-01T01:00:00Z</time>
      </trkpt>
      <trkpt lat="58.411597" lon="15.630857">
        <ele>45.5455</ele>
        <time>1970-01-01T01:00:00Z</time>
      </trkpt>
      <trkpt lat="58.411507" lon="15.630846">
        <ele>45.8182</ele>
        <time>1970-01-01T01:00:00Z</time>
      </trkpt>
      <trkpt lat="58.411399" lon="15.630821">
        <ele>46.0909</ele>
        <time>1970-01-01T01:00:00Z</time>
      </trkpt>
      <trkpt lat="58.411308" lon="15.630821">
        <ele>46.3636</ele>
        <time>1970-01-01T01:00:00Z</time>
      </trkpt>
      <trkpt lat="58.411205" lon="15.630841">
        <ele>46.6364</ele>
        <time>1970-01-01T01:00:00Z</time>
      </trkpt>
      <trkpt lat="58.411101" lon="15.630886">
        <ele>46.9091</ele>
        <time>1970-01-01T01:00:00Z</time>
      </trkpt>
      <trkpt lat="58.410982" lon="15.630903">
        <ele>47.1818</ele>
        <time>1970-01-01T01:00:00Z</time>
      </trkpt>
      <trkpt lat="58.410893" lon="15.630924">
        <ele>47.7273</ele>
        <time>1970-01-01T01:00:00Z</time>
      </trkpt>
      <trkpt lat="58.410787" lon="15.63096">
        <ele>48.2727</ele>
        <time>1970-01-01T01:00:00Z</time>
      </trkpt>
      <trkpt lat="58.410674" lon="15.630966">
        <ele>48.8182</ele>
        <time>1970-01-01T01:00:00Z</time>
      </trkpt>
      <trkpt lat="58.410586" lon="15.631002">
        <ele>49.0909</ele>
        <time>1970-01-01T01:00:00Z</time>
      </trkpt>
      <trkpt lat="58.410465" lon="15.630976">
        <ele>49.3636</ele>
        <time>1970-01-01T01:00:00Z</time>
      </trkpt>
      <trkpt lat="58.410366" lon="15.630972">
        <ele>49.6364</ele>
        <time>1970-01-01T01:00:00Z</time>
      </trkpt>
      <trkpt lat="58.410244" lon="15.631009">
        <ele>49.9091</ele>
        <time>1970-01-01T01:00:00Z</time>
      </trkpt>
      <trkpt lat="58.410149" lon="15.631049">
        <ele>50.1818</ele>
        <time>1970-01-01T01:00:00Z</time>
      </trkpt>
      <trkpt lat="58.410055" lon="15.631036">
        <ele>50.4</ele>
        <time>1970-01-01T01:00:00Z</time>
      </trkpt>
      <trkpt lat="58.409955" lon="15.631042">
        <ele>50.6667</ele>
        <time>1970-01-01T01:00:00Z</time>
      </trkpt>
      <trkpt lat="58.409862" lon="15.631066">
        <ele>51</ele>
        <time>1970-01-01T01:00:00Z</time>
      </trkpt>
      <trkpt lat="58.409739" lon="15.63115">
        <ele>51</ele>
        <time>1970-01-01T01:00:00Z</time>
      </trkpt>
      <trkpt lat="58.409687" lon="15.631206">
        <ele>51</ele>
        <time>1970-01-01T01:00:00Z</time>
      </trkpt>
    </trkseg>
  </trk>
</gpx>